| time (UTC) | temp F | wind direction | speed MPH | gust MPH | rain 1hr in | rain 24hr in | rain mn in | humidity % | barometer mb |
| 20260507064404 | 61 | 203 | 2.0 | 8.0 | 0.00 | 0.00 | 0.00 | 77 | 1008.4 |
| 20260507063904 | 61 | 207 | 3.0 | 7.0 | 0.00 | 0.00 | 0.00 | 77 | 1008.4 |
| 20260507063404 | 61 | 213 | 2.0 | 6.0 | 0.00 | 0.00 | 0.00 | 77 | 1008.4 |
| 20260507062904 | 61 | 166 | 4.0 | 7.0 | 0.00 | 0.00 | 0.00 | 78 | 1008.5 |
| 20260507061905 | 61 | 152 | 3.0 | 7.0 | 0.00 | 0.00 | 0.00 | 78 | 1008.1 |
| 20260507061405 | 60 | 233 | 2.0 | 6.0 | 0.00 | 0.00 | 0.00 | 78 | 1008.0 |
| 20260507060904 | 60 | 211 | 2.0 | 3.0 | 0.00 | 0.00 | 0.00 | 79 | 1007.9 |
| 20260507060404 | 60 | 207 | 1.0 | 3.0 | 0.00 | 0.00 | 0.00 | 79 | 1007.9 |
| 20260507055919 | 60 | 207 | 1.0 | 3.0 | 0.00 | 0.00 | 0.00 | 79 | 1007.9 |
| 20260507055404 | 60 | 207 | 2.0 | 6.0 | 0.00 | 0.00 | 0.00 | 79 | 1007.8 |
| 20260507054905 | 60 | 189 | 1.0 | 5.0 | 0.00 | 0.00 | 0.00 | 79 | 1007.8 |
| 20260507054404 | 60 | 185 | 2.0 | 6.0 | 0.00 | 0.00 | 0.00 | 79 | 1007.7 |
| 20260507053904 | 60 | 206 | 3.0 | 7.0 | 0.00 | 0.00 | 0.00 | 79 | 1007.7 |
| 20260507053404 | 60 | 189 | 5.0 | 8.0 | 0.00 | 0.00 | 0.00 | 79 | 1007.7 |
| 20260507052405 | 60 | 190 | 3.0 | 7.0 | 0.00 | 0.00 | 0.00 | 79 | 1007.6 |
| 20260507051904 | 59 | 232 | 2.0 | 9.0 | 0.00 | 0.00 | 0.00 | 79 | 1007.6 |
| 20260507051405 | 59 | 213 | 3.0 | 8.0 | 0.00 | 0.00 | 0.00 | 79 | 1007.6 |
| 20260507050904 | 59 | 214 | 3.0 | 7.0 | 0.00 | 0.00 | 0.00 | 79 | 1007.5 |
| 20260507050404 | 59 | 205 | 2.0 | 6.0 | 0.00 | 0.00 | 0.00 | 79 | 1007.4 |
| 20260507045405 | 59 | 194 | 2.0 | 7.0 | 0.00 | 0.00 | 0.00 | 79 | 1007.2 |
| 20260507043905 | 59 | 188 | 1.0 | 3.0 | 0.00 | 0.00 | 0.00 | 79 | 1007.1 |
| 20260507043404 | 59 | 188 | 2.0 | 7.0 | 0.00 | 0.00 | 0.00 | 79 | 1007.1 |
| 20260507042904 | 59 | 165 | 1.0 | 5.0 | 0.00 | 0.00 | 0.00 | 79 | 1007.1 |
| 20260507042404 | 59 | 142 | 1.0 | 5.0 | 0.00 | 0.00 | 0.00 | 79 | 1007.0 |
| 20260507041905 | 59 | 138 | 1.0 | 6.0 | 0.00 | 0.00 | 0.00 | 79 | 1006.8 |
| 20260507041404 | 59 | 152 | 1.0 | 5.0 | 0.00 | 0.00 | 0.00 | 79 | 1006.8 |
| 20260507035904 | 60 | 67 | 1.0 | 3.0 | 0.00 | 0.00 | 0.00 | 79 | 1006.8 |
| 20260507035404 | 60 | 136 | 0.0 | 2.0 | 0.00 | 0.00 | 0.00 | 79 | 1006.6 |
| 20260507034905 | 60 | 136 | 1.0 | 2.0 | 0.00 | 0.00 | 0.00 | 78 | 1006.5 |
| 20260507034405 | 60 | 163 | 2.0 | 6.0 | 0.00 | 0.00 | 0.00 | 78 | 1006.5 |
| 20260507033904 | 60 | 174 | 2.0 | 5.0 | 0.00 | 0.00 | 0.00 | 78 | 1006.5 |
| 20260507033404 | 60 | 194 | 2.0 | 6.0 | 0.00 | 0.00 | 0.00 | 78 | 1006.3 |
| 20260507032904 | 60 | 117 | 2.0 | 7.0 | 0.00 | 0.00 | 0.00 | 78 | 1006.2 |
| 20260507032404 | 60 | 157 | 2.0 | 6.0 | 0.00 | 0.00 | 0.00 | 78 | 1006.2 |
| 20260507031905 | 60 | 194 | 2.0 | 6.0 | 0.00 | 0.00 | 0.00 | 78 | 1006.2 |
| 20260507031404 | 60 | 195 | 2.0 | 3.0 | 0.00 | 0.00 | 0.00 | 77 | 1006.1 |
| 20260507030904 | 60 | 207 | 2.0 | 7.0 | 0.00 | 0.00 | 0.00 | 77 | 1006.1 |
| 20260507030404 | 60 | 185 | 2.0 | 5.0 | 0.00 | 0.00 | 0.00 | 77 | 1006.2 |
| 20260507025904 | 60 | 235 | 3.0 | 7.0 | 0.00 | 0.00 | 0.00 | 77 | 1006.1 |
| 20260507025404 | 61 | 234 | 5.0 | 12.0 | 0.00 | 0.00 | 0.00 | 77 | 1006.1 |
| 20260507024405 | 61 | 118 | 1.0 | 6.0 | 0.00 | 0.00 | 0.00 | 76 | 1005.9 |
| 20260507023904 | 61 | 199 | 2.0 | 7.0 | 0.00 | 0.00 | 0.00 | 76 | 1005.9 |
| 20260507023404 | 61 | 178 | 2.0 | 9.0 | 0.00 | 0.00 | 0.00 | 76 | 1005.9 |
| 20260507022905 | 61 | 182 | 1.0 | 7.0 | 0.00 | 0.00 | 0.00 | 76 | 1005.8 |
| 20260507022404 | 61 | 219 | 3.0 | 8.0 | 0.00 | 0.00 | 0.00 | 76 | 1005.7 |
| 20260507020904 | 61 | 181 | 6.0 | 12.0 | 0.00 | 0.00 | 0.00 | 75 | 1005.5 |
| 20260507020404 | 61 | 163 | 6.0 | 12.0 | 0.00 | 0.00 | 0.00 | 74 | 1005.5 |
| 20260507015904 | 62 | 189 | 5.0 | 12.0 | 0.00 | 0.00 | 0.00 | 74 | 1005.4 |
| 20260507015405 | 62 | 183 | 6.0 | 14.0 | 0.00 | 0.00 | 0.00 | 74 | 1005.3 |
| 20260507014904 | 62 | 177 | 5.0 | 9.0 | 0.00 | 0.00 | 0.00 | 73 | 1005.3 |
| 20260507014404 | 62 | 177 | 3.0 | 10.0 | 0.00 | 0.00 | 0.00 | 73 | 1005.2 |
| 20260507013904 | 62 | 180 | 3.0 | 8.0 | 0.00 | 0.00 | 0.00 | 73 | 1005.2 |
| 20260507013404 | 62 | 185 | 3.0 | 10.0 | 0.00 | 0.00 | 0.00 | 73 | 1005.3 |
| 20260507012904 | 62 | 195 | 3.0 | 9.0 | 0.00 | 0.00 | 0.00 | 73 | 1005.3 |
| 20260507012404 | 62 | 157 | 2.0 | 7.0 | 0.00 | 0.00 | 0.00 | 73 | 1005.1 |
| 20260507011904 | 62 | 151 | 2.0 | 5.0 | 0.00 | 0.00 | 0.00 | 73 | 1005.1 |
| 20260507011405 | 62 | 136 | 1.0 | 5.0 | 0.00 | 0.00 | 0.00 | 73 | 1005.1 |
| 20260507010904 | 62 | 190 | 2.0 | 6.0 | 0.00 | 0.00 | 0.00 | 73 | 1005.0 |
| 20260507005904 | 62 | 165 | 3.0 | 8.0 | 0.00 | 0.00 | 0.00 | 73 | 1005.0 |
| 20260507005408 | 63 | 160 | 3.0 | 7.0 | 0.00 | 0.00 | 0.00 | 73 | 1004.9 |
| 20260507004405 | 63 | 160 | 4.0 | 9.0 | 0.00 | 0.00 | 0.00 | 73 | 1004.8 |
| 20260507003904 | 63 | 130 | 3.0 | 8.0 | 0.00 | 0.00 | 0.00 | 73 | 1004.7 |
| 20260507002904 | 63 | 155 | 3.0 | 8.0 | 0.00 | 0.00 | 0.00 | 73 | 1004.7 |
| 20260507002405 | 63 | 144 | 4.0 | 9.0 | 0.00 | 0.00 | 0.00 | 73 | 1004.8 |
| 20260507001904 | 63 | 143 | 1.0 | 10.0 | 0.00 | 0.00 | 0.00 | 72 | 1004.8 |
| 20260507001404 | 63 | 212 | 3.0 | 8.0 | 0.00 | 0.00 | 0.00 | 72 | 1004.8 |
| 20260507000904 | 63 | 116 | 3.0 | 7.0 | 0.00 | 0.00 | 0.00 | 72 | 1004.8 |
| 20260507000405 | 63 | 192 | 1.0 | 3.0 | 0.00 | 0.00 | 0.00 | 72 | 1004.7 |
| 20260506235904 | 63 | 302 | 1.0 | 3.0 | 0.00 | 0.00 | 0.00 | 72 | 1004.6 |
| 20260506234905 | 63 | 20 | 2.0 | 7.0 | 0.00 | 0.00 | 0.00 | 72 | 1004.7 |
| 20260506234404 | 63 | 105 | 3.0 | 7.0 | 0.00 | 0.00 | 0.00 | 72 | 1004.7 |
| 20260506233904 | 63 | 126 | 2.0 | 8.0 | 0.00 | 0.00 | 0.00 | 71 | 1004.8 |
| 20260506233404 | 63 | 193 | 2.0 | 6.0 | 0.00 | 0.00 | 0.00 | 71 | 1004.8 |
| 20260506232904 | 63 | 118 | 2.0 | 12.0 | 0.00 | 0.00 | 0.00 | 71 | 1004.6 |
| 20260506232404 | 63 | 145 | 3.0 | 8.0 | 0.00 | 0.00 | 0.00 | 71 | 1004.5 |
| 20260506230904 | 63 | 106 | 5.0 | 10.0 | 0.00 | 0.00 | 0.00 | 70 | 1004.5 |
| 20260506230404 | 64 | 105 | 6.0 | 13.0 | 0.00 | 0.00 | 0.00 | 70 | 1004.6 |
| 20260506225904 | 64 | 183 | 2.0 | 6.0 | 0.00 | 0.00 | 0.00 | 70 | 1004.6 |
| 20260506225404 | 64 | 134 | 2.0 | 5.0 | 0.00 | 0.00 | 0.00 | 70 | 1004.6 |
| 20260506224905 | 64 | 150 | 3.0 | 13.0 | 0.00 | 0.00 | 0.00 | 70 | 1004.6 |
| 20260506223905 | 64 | 143 | 3.0 | 10.0 | 0.00 | 0.00 | 0.00 | 69 | 1004.5 |
| 20260506223404 | 64 | 132 | 2.0 | 7.0 | 0.00 | 0.00 | 0.00 | 69 | 1004.4 |
| 20260506222905 | 64 | 178 | 4.0 | 9.0 | 0.00 | 0.00 | 0.00 | 69 | 1004.4 |
| 20260506222404 | 64 | 164 | 3.0 | 13.0 | 0.00 | 0.00 | 0.00 | 68 | 1004.4 |
| 20260506221904 | 65 | 159 | 2.0 | 8.0 | 0.00 | 0.00 | 0.00 | 68 | 1004.4 |
| 20260506221405 | 65 | 153 | 4.0 | 9.0 | 0.00 | 0.00 | 0.00 | 68 | 1004.2 |
| 20260506220405 | 65 | 177 | 7.0 | 20.0 | 0.00 | 0.00 | 0.00 | 67 | 1004.2 |
| 20260506215905 | 65 | 107 | 3.0 | 20.0 | 0.00 | 0.00 | 0.00 | 67 | 1004.3 |
| 20260506215404 | 65 | 149 | 3.0 | 14.0 | 0.00 | 0.00 | 0.00 | 67 | 1004.2 |
| 20260506214904 | 65 | 177 | 6.0 | 15.0 | 0.00 | 0.00 | 0.00 | 67 | 1004.2 |
| 20260506213404 | 66 | 153 | 2.0 | 15.0 | 0.00 | 0.00 | 0.00 | 66 | 1004.3 |
| 20260506212905 | 66 | 161 | 3.0 | 13.0 | 0.00 | 0.00 | 0.00 | 66 | 1004.2 |
| 20260506211904 | 66 | 192 | 6.0 | 12.0 | 0.00 | 0.00 | 0.00 | 65 | 1004.1 |
| 20260506211404 | 66 | 140 | 3.0 | 8.0 | 0.00 | 0.00 | 0.00 | 65 | 1004.1 |
| 20260506210904 | 66 | 132 | 3.0 | 7.0 | 0.00 | 0.00 | 0.00 | 65 | 1004.0 |
| 20260506210404 | 66 | 143 | 5.0 | 10.0 | 0.00 | 0.00 | 0.00 | 64 | 1004.0 |
| 20260506205904 | 66 | 168 | 4.0 | 10.0 | 0.00 | 0.00 | 0.00 | 64 | 1004.0 |
| 20260506205405 | 66 | 162 | 4.0 | 10.0 | 0.00 | 0.00 | 0.00 | 64 | 1004.0 |
| 20260506204905 | 66 | 155 | 3.0 | 7.0 | 0.00 | 0.00 | 0.00 | 64 | 1004.1 |
| 20260506203905 | 66 | 145 | 3.0 | 13.0 | 0.00 | 0.00 | 0.00 | 64 | 1004.0 |
| 20260506203405 | 67 | 109 | 1.0 | 6.0 | 0.00 | 0.00 | 0.00 | 63 | 1003.8 |
| 20260506202905 | 67 | 167 | 4.0 | 8.0 | 0.00 | 0.00 | 0.00 | 63 | 1003.8 |
| 20260506202404 | 67 | 191 | 4.0 | 9.0 | 0.00 | 0.00 | 0.00 | 63 | 1003.7 |
| 20260506201904 | 67 | 166 | 5.0 | 13.0 | 0.00 | 0.00 | 0.00 | 63 | 1003.7 |
| 20260506200904 | 67 | 153 | 0.0 | 5.0 | 0.00 | 0.00 | 0.00 | 62 | 1003.7 |
| 20260506195904 | 67 | 135 | 4.0 | 7.0 | 0.00 | 0.00 | 0.00 | 61 | 1003.7 |
| 20260506195404 | 68 | 150 | 2.0 | 6.0 | 0.00 | 0.00 | 0.00 | 61 | 1003.8 |
| 20260506194912 | 68 | 153 | 3.0 | 9.0 | 0.00 | 0.00 | 0.00 | 60 | 1003.8 |
| 20260506194404 | 68 | 149 | 1.0 | 5.0 | 0.00 | 0.00 | 0.00 | 60 | 1003.8 |
| 20260506193904 | 68 | 136 | 3.0 | 7.0 | 0.00 | 0.00 | 0.00 | 59 | 1003.8 |
| 20260506193407 | 68 | 144 | 5.0 | 12.0 | 0.00 | 0.00 | 0.00 | 59 | 1003.7 |
| 20260506192404 | 68 | 201 | 2.0 | 12.0 | 0.00 | 0.00 | 0.00 | 58 | 1003.8 |
| 20260506191905 | 68 | 158 | 3.0 | 7.0 | 0.00 | 0.00 | 0.00 | 58 | 1003.8 |
| 20260506191404 | 68 | 143 | 3.0 | 9.0 | 0.00 | 0.00 | 0.00 | 58 | 1003.7 |
| 20260506185904 | 69 | 168 | 2.0 | 8.0 | 0.00 | 0.00 | 0.00 | 56 | 1003.6 |
| 20260506185404 | 69 | 81 | 2.0 | 6.0 | 0.00 | 0.00 | 0.00 | 56 | 1003.4 |
| 20260506184904 | 69 | 87 | 3.0 | 6.0 | 0.00 | 0.00 | 0.00 | 56 | 1003.4 |
| 20260506184405 | 69 | 158 | 5.0 | 14.0 | 0.00 | 0.00 | 0.00 | 56 | 1003.4 |
| 20260506183904 | 70 | 168 | 2.0 | 6.0 | 0.00 | 0.00 | 0.00 | 55 | 1003.4 |
| 20260506183404 | 70 | 152 | 4.0 | 10.0 | 0.00 | 0.00 | 0.00 | 55 | 1003.2 |
| 20260506182904 | 70 | 153 | 2.0 | 8.0 | 0.00 | 0.00 | 0.00 | 55 | 1003.2 |
| 20260506182404 | 70 | 175 | 6.0 | 18.0 | 0.00 | 0.00 | 0.00 | 54 | 1003.2 |
| 20260506181905 | 70 | 154 | 2.0 | 13.0 | 0.00 | 0.00 | 0.00 | 55 | 1003.1 |
| 20260506181404 | 71 | 185 | 3.0 | 7.0 | 0.00 | 0.00 | 0.00 | 55 | 1003.0 |
| 20260506180404 | 71 | 190 | 2.0 | 8.0 | 0.00 | 0.00 | 0.00 | 54 | 1003.0 |
| 20260506175404 | 71 | 149 | 1.0 | 12.0 | 0.00 | 0.00 | 0.00 | 53 | 1002.9 |
| 20260506174904 | 71 | 151 | 4.0 | 12.0 | 0.00 | 0.00 | 0.00 | 53 | 1002.9 |
| 20260506174404 | 72 | 100 | 2.0 | 13.0 | 0.00 | 0.00 | 0.00 | 53 | 1003.0 |
| 20260506173904 | 72 | 138 | 1.0 | 9.0 | 0.00 | 0.00 | 0.00 | 52 | 1002.9 |
| 20260506173405 | 72 | 145 | 2.0 | 7.0 | 0.00 | 0.00 | 0.00 | 52 | 1002.9 |
| 20260506172904 | 72 | 117 | 0.0 | 6.0 | 0.00 | 0.00 | 0.00 | 51 | 1002.9 |
| 20260506172404 | 72 | 125 | 2.0 | 7.0 | 0.00 | 0.00 | 0.00 | 51 | 1003.0 |
| 20260506171904 | 72 | 157 | 2.0 | 5.0 | 0.00 | 0.00 | 0.00 | 51 | 1003.0 |
| 20260506171404 | 72 | 31 | 2.0 | 12.0 | 0.00 | 0.00 | 0.00 | 50 | 1003.0 |
| 20260506165905 | 73 | 193 | 5.0 | 12.0 | 0.00 | 0.00 | 0.00 | 50 | 1003.0 |
| 20260506164905 | 73 | 97 | 2.0 | 15.0 | 0.00 | 0.00 | 0.00 | 50 | 1003.2 |
| 20260506163904 | 73 | 111 | 2.0 | 7.0 | 0.00 | 0.00 | 0.00 | 50 | 1003.2 |
| 20260506163404 | 73 | 141 | 3.0 | 12.0 | 0.00 | 0.00 | 0.00 | 50 | 1003.3 |
| 20260506162404 | 73 | 144 | 2.0 | 12.0 | 0.00 | 0.00 | 0.00 | 51 | 1003.4 |
| 20260506161904 | 73 | 193 | 2.0 | 7.0 | 0.00 | 0.00 | 0.00 | 51 | 1003.5 |
| 20260506160905 | 74 | 104 | 2.0 | 7.0 | 0.00 | 0.00 | 0.00 | 51 | 1003.6 |
| 20260506160404 | 74 | 163 | 3.0 | 9.0 | 0.00 | 0.00 | 0.00 | 51 | 1003.6 |
| 20260506155904 | 74 | 86 | 4.0 | 15.0 | 0.00 | 0.00 | 0.00 | 52 | 1003.6 |
| 20260506155404 | 74 | 137 | 3.0 | 12.0 | 0.00 | 0.00 | 0.00 | 52 | 1003.7 |
| 20260506154904 | 74 | 148 | 2.0 | 8.0 | 0.00 | 0.00 | 0.00 | 52 | 1003.7 |
| 20260506154404 | 74 | 173 | 2.0 | 15.0 | 0.00 | 0.00 | 0.00 | 51 | 1003.7 |
| 20260506153405 | 74 | 117 | 3.0 | 7.0 | 0.00 | 0.00 | 0.00 | 51 | 1003.8 |
| 20260506152904 | 74 | 98 | 3.0 | 9.0 | 0.00 | 0.00 | 0.00 | 51 | 1004.0 |
| 20260506152404 | 74 | 173 | 3.0 | 6.0 | 0.00 | 0.00 | 0.00 | 52 | 1004.0 |
| 20260506151904 | 74 | 109 | 1.0 | 7.0 | 0.00 | 0.00 | 0.00 | 53 | 1004.0 |
| 20260506150404 | 74 | 135 | 3.0 | 14.0 | 0.00 | 0.00 | 0.00 | 52 | 1004.1 |
| 20260506145404 | 74 | 135 | 5.0 | 13.0 | 0.00 | 0.00 | 0.00 | 50 | 1004.2 |
| 20260506144905 | 74 | 124 | 3.0 | 13.0 | 0.00 | 0.00 | 0.00 | 51 | 1004.3 |
| 20260506144412 | 74 | 130 | 3.0 | 9.0 | 0.00 | 0.00 | 0.00 | 51 | 1004.3 |
| 20260506143904 | 75 | 201 | 6.0 | 15.0 | 0.00 | 0.00 | 0.00 | 51 | 1004.2 |
| 20260506142904 | 74 | 178 | 5.0 | 12.0 | 0.00 | 0.00 | 0.00 | 52 | 1004.4 |
| 20260506142404 | 74 | 175 | 4.0 | 12.0 | 0.00 | 0.00 | 0.00 | 51 | 1004.4 |
| 20260506141904 | 74 | 190 | 6.0 | 12.0 | 0.00 | 0.00 | 0.00 | 52 | 1004.5 |
| 20260506141404 | 74 | 119 | 3.0 | 8.0 | 0.00 | 0.00 | 0.00 | 52 | 1004.3 |
| 20260506140904 | 74 | 146 | 3.0 | 6.0 | 0.00 | 0.00 | 0.00 | 52 | 1004.4 |
| 20260506140404 | 74 | 113 | 4.0 | 12.0 | 0.00 | 0.00 | 0.00 | 52 | 1004.5 |
| 20260506134905 | 75 | 213 | 3.0 | 12.0 | 0.00 | 0.00 | 0.00 | 51 | 1004.7 |
| 20260506134404 | 75 | 139 | 3.0 | 9.0 | 0.00 | 0.00 | 0.00 | 51 | 1004.7 |
| 20260506133404 | 75 | 126 | 3.0 | 8.0 | 0.00 | 0.00 | 0.00 | 51 | 1004.8 |
| 20260506132905 | 76 | 153 | 6.0 | 12.0 | 0.00 | 0.00 | 0.00 | 50 | 1004.9 |
| 20260506132404 | 76 | 180 | 4.0 | 9.0 | 0.00 | 0.00 | 0.00 | 50 | 1004.9 |
| 20260506131904 | 76 | 136 | 6.0 | 9.0 | 0.00 | 0.00 | 0.00 | 51 | 1005.0 |
| 20260506130904 | 75 | 150 | 5.0 | 12.0 | 0.00 | 0.00 | 0.00 | 52 | 1005.0 |
| 20260506130405 | 75 | 184 | 5.0 | 16.0 | 0.00 | 0.00 | 0.00 | 51 | 1005.1 |
| 20260506125905 | 75 | 205 | 6.0 | 16.0 | 0.00 | 0.00 | 0.00 | 51 | 1005.2 |
| 20260506124904 | 75 | 209 | 6.0 | 17.0 | 0.00 | 0.00 | 0.00 | 51 | 1005.2 |
| 20260506124404 | 75 | 187 | 7.0 | 15.0 | 0.00 | 0.00 | 0.00 | 51 | 1005.2 |
| 20260506123904 | 76 | 183 | 5.0 | 15.0 | 0.00 | 0.00 | 0.00 | 51 | 1005.3 |
| 20260506122404 | 75 | 166 | 6.0 | 9.0 | 0.00 | 0.00 | 0.00 | 49 | 1005.3 |
| 20260506121904 | 75 | 178 | 2.0 | 10.0 | 0.00 | 0.00 | 0.00 | 50 | 1005.2 |
| 20260506121404 | 75 | 159 | 6.0 | 14.0 | 0.00 | 0.00 | 0.00 | 50 | 1005.3 |
| 20260506115904 | 75 | 203 | 5.0 | 12.0 | 0.00 | 0.00 | 0.00 | 49 | 1005.1 |
| 20260506115404 | 75 | 197 | 3.0 | 12.0 | 0.00 | 0.00 | 0.00 | 48 | 1005.1 |
| 20260506114904 | 75 | 185 | 7.0 | 12.0 | 0.00 | 0.00 | 0.00 | 50 | 1005.1 |
| 20260506114405 | 74 | 194 | 5.0 | 12.0 | 0.00 | 0.00 | 0.00 | 50 | 1005.1 |
| 20260506113904 | 74 | 220 | 4.0 | 7.0 | 0.00 | 0.00 | 0.00 | 50 | 1005.3 |
| 20260506113405 | 74 | 181 | 4.0 | 12.0 | 0.00 | 0.00 | 0.00 | 49 | 1005.3 |
| 20260506112904 | 74 | 222 | 5.0 | 13.0 | 0.00 | 0.00 | 0.00 | 50 | 1005.5 |
| 20260506112404 | 73 | 186 | 5.0 | 12.0 | 0.00 | 0.00 | 0.00 | 50 | 1005.5 |
| 20260506110904 | 73 | 220 | 4.0 | 10.0 | 0.00 | 0.00 | 0.00 | 52 | 1005.4 |
| 20260506110404 | 73 | 200 | 8.0 | 13.0 | 0.00 | 0.00 | 0.00 | 51 | 1005.5 |
| 20260506105904 | 73 | 218 | 6.0 | 15.0 | 0.00 | 0.00 | 0.00 | 51 | 1005.5 |
| 20260506104904 | 73 | 36 | 3.0 | 8.0 | 0.00 | 0.00 | 0.00 | 51 | 1005.5 |
| 20260506104404 | 73 | 203 | 5.0 | 9.0 | 0.00 | 0.00 | 0.00 | 52 | 1005.5 |
| 20260506103905 | 73 | 124 | 4.0 | 9.0 | 0.00 | 0.00 | 0.00 | 52 | 1005.6 |
| 20260506103404 | 73 | 174 | 4.0 | 9.0 | 0.00 | 0.00 | 0.00 | 52 | 1005.7 |
| 20260506102904 | 73 | 191 | 3.0 | 7.0 | 0.00 | 0.00 | 0.00 | 51 | 1005.7 |
| 20260506102404 | 73 | 135 | 4.0 | 8.0 | 0.00 | 0.00 | 0.00 | 50 | 1005.8 |
| 20260506101404 | 74 | 238 | 4.0 | 10.0 | 0.00 | 0.00 | 0.00 | 52 | 1005.8 |
| 20260506100904 | 73 | 202 | 3.0 | 6.0 | 0.00 | 0.00 | 0.00 | 52 | 1005.8 |
| 20260506100405 | 73 | 124 | 4.0 | 7.0 | 0.00 | 0.00 | 0.00 | 50 | 1005.9 |
| 20260506095904 | 73 | 117 | 3.0 | 10.0 | 0.00 | 0.00 | 0.00 | 51 | 1005.9 |
| 20260506095409 | 73 | 130 | 2.0 | 8.0 | 0.00 | 0.00 | 0.00 | 51 | 1006.0 |
| 20260506094904 | 73 | 116 | 5.0 | 9.0 | 0.00 | 0.00 | 0.00 | 52 | 1006.0 |
| 20260506094404 | 73 | 182 | 3.0 | 13.0 | 0.00 | 0.00 | 0.00 | 53 | 1006.1 |
| 20260506093404 | 72 | 233 | 5.0 | 9.0 | 0.00 | 0.00 | 0.00 | 56 | 1006.0 |
| 20260506092905 | 72 | 189 | 4.0 | 8.0 | 0.00 | 0.00 | 0.00 | 57 | 1006.1 |
| 20260506092404 | 71 | 247 | 3.0 | 5.0 | 0.00 | 0.00 | 0.00 | 59 | 1006.0 |
| 20260506091904 | 71 | 241 | 6.0 | 10.0 | 0.00 | 0.00 | 0.00 | 58 | 1006.1 |
| 20260506091404 | 71 | 192 | 2.0 | 10.0 | 0.00 | 0.00 | 0.00 | 57 | 1006.0 |
| 20260506090904 | 70 | 190 | 4.0 | 8.0 | 0.00 | 0.00 | 0.00 | 59 | 1006.2 |
| 20260506090405 | 70 | 143 | 2.0 | 8.0 | 0.00 | 0.00 | 0.00 | 57 | 1006.1 |
| 20260506085904 | 70 | 206 | 5.0 | 10.0 | 0.00 | 0.00 | 0.00 | 59 | 1006.2 |
| 20260506084904 | 70 | 178 | 6.0 | 13.0 | 0.00 | 0.00 | 0.00 | 61 | 1006.1 |
| 20260506084404 | 69 | 159 | 3.0 | 7.0 | 0.00 | 0.00 | 0.00 | 60 | 1006.1 |
| 20260506083904 | 69 | 187 | 5.0 | 12.0 | 0.00 | 0.00 | 0.00 | 61 | 1006.1 |
| 20260506083405 | 69 | 213 | 3.0 | 13.0 | 0.00 | 0.00 | 0.00 | 62 | 1006.1 |
| 20260506082905 | 68 | 230 | 2.0 | 10.0 | 0.00 | 0.00 | 0.00 | 62 | 1006.1 |
| 20260506082404 | 68 | 206 | 8.0 | 12.0 | 0.00 | 0.00 | 0.00 | 63 | 1006.2 |
| 20260506081904 | 68 | 225 | 3.0 | 9.0 | 0.00 | 0.00 | 0.00 | 65 | 1006.0 |
| 20260506081405 | 68 | 211 | 6.0 | 12.0 | 0.00 | 0.00 | 0.00 | 64 | 1006.0 |
| 20260506080904 | 68 | 209 | 5.0 | 9.0 | 0.00 | 0.00 | 0.00 | 64 | 1006.0 |
| 20260506080405 | 68 | 176 | 6.0 | 12.0 | 0.00 | 0.00 | 0.00 | 64 | 1006.1 |
| 20260506073405 | 66 | 197 | 5.0 | 9.0 | 0.00 | 0.00 | 0.00 | 68 | 1006.1 |
| 20260506072904 | 66 | 181 | 3.0 | 8.0 | 0.00 | 0.00 | 0.00 | 68 | 1006.2 |
| 20260506072404 | 65 | 171 | 7.0 | 13.0 | 0.00 | 0.00 | 0.00 | 68 | 1006.2 |
| 20260506071904 | 65 | 205 | 4.0 | 8.0 | 0.00 | 0.00 | 0.00 | 69 | 1006.1 |
| 20260506071404 | 65 | 186 | 2.0 | 7.0 | 0.00 | 0.00 | 0.00 | 69 | 1006.1 |
| 20260506070904 | 64 | 205 | 2.0 | 7.0 | 0.00 | 0.00 | 0.00 | 69 | 1006.1 |
| 20260506070404 | 64 | 179 | 3.0 | 7.0 | 0.00 | 0.00 | 0.00 | 69 | 1006.1 |